Location: Althorst
(53.6379°N, 10.7715°E)
Time: 13:07:44
(UTC+00:00)

Transit 2A Rocket - Pass Details

Date: 10 December 2019
Orbit: 593 x 910 km, 66.7° (Epoch: 26 January)

Event Time Altitude Azimuth Distance (km) Brightness Sun altitude
Rises 16:15:26 0° 214° (SW) 2,934 9.1 -10.7°
Reaches altitude 10° 16:17:45 10° 213° (SSW) 1,994 8.1 -11.0°
Maximum altitude 16:22:12 77° 128° (SE) 626 4.5 -11.6°
Enters shadow 16:25:41 16° 44° (NE) 1,606 6.1 -12.1°
